date,time,SUV Intensity [MED/Hr],UV Index,Daily total [MED],Since Last [MED]
02/03/2023,00:03:34,0.000,0.0,0.0,0.0
02/03/2023,00:04:34,-0.000,0.0,0.0,0.0
02/03/2023,00:05:34,0.000,0.0,0.0,0.0
02/03/2023,00:06:33,0.001,0.0,0.0,0.0
02/03/2023,00:07:34,-0.000,0.0,0.0,0.0
02/03/2023,00:08:33,0.000,0.0,0.0,0.0
02/03/2023,00:09:33,0.000,0.0,0.0,0.0
02/03/2023,00:10:34,0.000,0.0,0.0,0.0
02/03/2023,00:11:33,-0.000,0.0,0.0,0.0
02/03/2023,00:12:34,-0.000,0.0,0.0,0.0
02/03/2023,00:13:33,0.000,0.0,0.0,0.0
02/03/2023,00:14:34,0.000,0.0,0.0,0.0
02/03/2023,00:15:33,0.000,0.0,0.0,0.0
02/03/2023,00:16:34,0.000,0.0,0.0,0.0
02/03/2023,00:17:34,-0.000,0.0,0.0,0.0
02/03/2023,00:18:34,0.000,0.0,0.0,0.0
02/03/2023,00:19:34,-0.000,0.0,0.0,0.0
02/03/2023,00:20:34,0.000,0.0,0.0,0.0
02/03/2023,00:21:33,0.000,0.0,0.0,0.0
02/03/2023,00:22:33,-0.000,0.0,0.0,0.0
02/03/2023,00:23:33,0.000,0.0,0.0,0.0
02/03/2023,00:24:33,-0.000,0.0,0.0,0.0
02/03/2023,00:25:34,0.000,0.0,0.0,0.0
02/03/2023,00:26:34,-0.000,0.0,0.0,0.0
02/03/2023,00:27:34,0.000,0.0,0.0,0.0
02/03/2023,00:28:34,-0.000,0.0,0.0,0.0
02/03/2023,00:29:33,0.000,0.0,0.0,0.0
02/03/2023,00:30:33,0.000,0.0,0.0,0.0
02/03/2023,00:31:34,0.000,0.0,0.0,0.0
02/03/2023,00:32:33,0.001,0.0,0.0,0.0
02/03/2023,00:33:35,0.000,0.0,0.0,0.0
02/03/2023,00:34:33,0.000,0.0,0.0,0.0
02/03/2023,00:35:34,0.000,0.0,0.0,0.0
02/03/2023,00:36:33,-0.000,0.0,0.0,0.0
02/03/2023,00:37:34,0.000,0.0,0.0,0.0
02/03/2023,00:38:33,0.000,0.0,0.0,0.0
02/03/2023,00:39:34,0.000,0.0,0.0,0.0
02/03/2023,00:40:34,0.000,0.0,0.0,0.0
02/03/2023,00:41:34,0.000,0.0,0.0,0.0
02/03/2023,00:42:34,-0.001,0.0,0.0,0.0
02/03/2023,00:43:34,-0.000,0.0,0.0,0.0
02/03/2023,00:44:34,-0.000,0.0,0.0,0.0
02/03/2023,00:45:34,0.000,0.0,0.0,0.0
02/03/2023,00:46:34,0.000,0.0,0.0,0.0
02/03/2023,00:47:34,0.000,0.0,0.0,0.0
02/03/2023,00:48:34,0.000,0.0,0.0,0.0
02/03/2023,00:49:34,-0.000,0.0,0.0,0.0
02/03/2023,00:50:34,0.000,0.0,0.0,0.0
02/03/2023,00:51:34,0.000,0.0,0.0,0.0
02/03/2023,00:52:33,0.000,0.0,0.0,0.0
02/03/2023,00:53:34,0.000,0.0,0.0,0.0
02/03/2023,00:54:33,0.000,0.0,0.0,0.0
02/03/2023,00:55:34,0.000,0.0,0.0,0.0
02/03/2023,00:56:33,0.000,0.0,0.0,0.0
02/03/2023,00:57:34,0.000,0.0,0.0,0.0
02/03/2023,00:58:34,-0.000,0.0,0.0,0.0
02/03/2023,00:59:34,0.000,0.0,0.0,0.0
02/03/2023,01:00:34,0.001,0.0,0.0,0.0
02/03/2023,01:01:34,0.000,0.0,0.0,0.0
02/03/2023,01:02:34,0.000,0.0,0.0,0.0
02/03/2023,01:03:34,0.000,0.0,0.0,0.0
02/03/2023,01:04:34,0.000,0.0,0.0,0.0
02/03/2023,01:05:34,0.000,0.0,0.0,0.0
02/03/2023,01:06:34,0.000,0.0,0.0,0.0
02/03/2023,01:07:34,0.000,0.0,0.0,0.0
02/03/2023,01:08:34,0.000,0.0,0.0,0.0
02/03/2023,01:09:34,0.000,0.0,0.0,0.0
02/03/2023,01:10:34,0.000,0.0,0.0,0.0
02/03/2023,01:11:34,-0.000,0.0,0.0,0.0
02/03/2023,01:12:34,0.000,0.0,0.0,0.0
02/03/2023,01:13:33,0.000,0.0,0.0,0.0
02/03/2023,01:14:34,0.000,0.0,0.0,0.0
02/03/2023,01:15:33,0.001,0.0,0.0,0.0
02/03/2023,01:16:34,0.000,0.0,0.0,0.0
02/03/2023,01:17:33,0.000,0.0,0.0,0.0
02/03/2023,01:18:34,0.000,0.0,0.0,0.0
02/03/2023,01:19:34,0.000,0.0,0.0,0.0
02/03/2023,01:20:34,0.001,0.0,0.0,0.0
02/03/2023,01:21:34,0.000,0.0,0.0,0.0
02/03/2023,01:22:33,-0.000,0.0,0.0,0.0
02/03/2023,01:23:33,0.000,0.0,0.0,0.0
02/03/2023,01:24:34,0.000,0.0,0.0,0.0
02/03/2023,01:25:33,0.001,0.0,0.0,0.0
02/03/2023,01:26:34,-0.000,0.0,0.0,0.0
02/03/2023,01:27:33,0.000,0.0,0.0,0.0
02/03/2023,01:28:33,0.000,0.0,0.0,0.0
02/03/2023,01:29:33,0.000,0.0,0.0,0.0
02/03/2023,01:30:34,-0.000,0.0,0.0,0.0
02/03/2023,01:31:33,0.000,0.0,0.0,0.0
02/03/2023,01:32:33,0.000,0.0,0.0,0.0
02/03/2023,01:33:55,0.001,0.0,0.0,0.0
02/03/2023,01:35:34,-0.000,0.0,0.0,0.0
02/03/2023,01:36:35,-0.000,0.0,0.0,0.0
02/03/2023,01:37:34,0.000,0.0,0.0,0.0
02/03/2023,01:38:33,-0.000,0.0,0.0,0.0
02/03/2023,01:39:33,0.000,0.0,0.0,0.0
02/03/2023,01:40:33,0.000,0.0,0.0,0.0
02/03/2023,01:41:33,0.000,0.0,0.0,0.0
02/03/2023,01:42:34,0.000,0.0,0.0,0.0
02/03/2023,01:43:34,0.000,0.0,0.0,0.0
02/03/2023,01:44:34,0.001,0.0,0.0,0.0
02/03/2023,01:45:34,0.000,0.0,0.0,0.0
02/03/2023,01:46:34,-0.000,0.0,0.0,0.0
02/03/2023,01:47:34,0.001,0.0,0.0,0.0
02/03/2023,01:48:34,0.000,0.0,0.0,0.0
02/03/2023,01:49:34,0.000,0.0,0.0,0.0
02/03/2023,01:50:34,0.000,0.0,0.0,0.0
02/03/2023,01:51:33,-0.001,0.0,0.0,0.0
02/03/2023,01:52:34,0.000,0.0,0.0,0.0
02/03/2023,01:53:33,0.000,0.0,0.0,0.0
02/03/2023,01:54:33,0.000,0.0,0.0,0.0
02/03/2023,01:55:33,-0.000,0.0,0.0,0.0
02/03/2023,01:56:34,0.000,0.0,0.0,0.0
02/03/2023,01:57:34,0.001,0.0,0.0,0.0
02/03/2023,01:58:34,0.000,0.0,0.0,0.0
02/03/2023,01:59:33,0.000,0.0,0.0,0.0
02/03/2023,02:00:34,0.000,0.0,0.0,0.0
02/03/2023,02:01:34,0.000,0.0,0.0,0.0
02/03/2023,02:02:34,0.000,0.0,0.0,0.0
02/03/2023,02:03:34,0.000,0.0,0.0,0.0
02/03/2023,02:04:34,0.000,0.0,0.0,0.0
02/03/2023,02:05:35,0.000,0.0,0.0,0.0
02/03/2023,02:06:34,0.000,0.0,0.0,0.0
02/03/2023,02:07:34,0.000,0.0,0.0,0.0
02/03/2023,02:08:34,0.000,0.0,0.0,0.0
02/03/2023,02:09:34,0.000,0.0,0.0,0.0
02/03/2023,02:10:34,0.000,0.0,0.0,0.0
02/03/2023,02:11:34,0.000,0.0,0.0,0.0
02/03/2023,02:12:33,0.000,0.0,0.0,0.0
02/03/2023,02:13:34,-0.000,0.0,0.0,0.0
02/03/2023,02:14:34,0.000,0.0,0.0,0.0
02/03/2023,02:15:34,0.000,0.0,0.0,0.0
02/03/2023,02:16:34,0.000,0.0,0.0,0.0
02/03/2023,02:17:34,0.000,0.0,0.0,0.0
02/03/2023,02:18:33,0.000,0.0,0.0,0.0
02/03/2023,02:19:33,0.000,0.0,0.0,0.0
02/03/2023,02:20:34,0.000,0.0,0.0,0.0
02/03/2023,02:21:33,0.000,0.0,0.0,0.0
02/03/2023,02:22:34,0.001,0.0,0.0,0.0
02/03/2023,02:23:34,0.000,0.0,0.0,0.0
02/03/2023,02:24:34,0.000,0.0,0.0,0.0
02/03/2023,02:25:34,0.000,0.0,0.0,0.0
02/03/2023,02:26:33,0.000,0.0,0.0,0.0
02/03/2023,02:27:34,-0.000,0.0,0.0,0.0
02/03/2023,02:28:34,-0.001,0.0,0.0,0.0
02/03/2023,02:29:34,0.000,0.0,0.0,0.0
02/03/2023,02:30:34,0.000,0.0,0.0,0.0
02/03/2023,02:31:34,0.001,0.0,0.0,0.0
02/03/2023,02:32:34,0.000,0.0,0.0,0.0
02/03/2023,02:33:34,0.001,0.0,0.0,0.0
02/03/2023,02:34:33,0.000,0.0,0.0,0.0
02/03/2023,02:35:34,0.001,0.0,0.0,0.0
02/03/2023,02:36:34,0.000,0.0,0.0,0.0
02/03/2023,02:37:34,0.000,0.0,0.0,0.0
02/03/2023,02:38:34,0.001,0.0,0.0,0.0
02/03/2023,02:39:34,-0.000,0.0,0.0,0.0
02/03/2023,02:40:33,-0.000,0.0,0.0,0.0
02/03/2023,02:41:34,0.001,0.0,0.0,0.0
02/03/2023,02:42:33,0.000,0.0,0.0,0.0
02/03/2023,02:43:34,0.000,0.0,0.0,0.0
02/03/2023,02:44:34,0.000,0.0,0.0,0.0
02/03/2023,02:45:34,-0.000,0.0,0.0,0.0
02/03/2023,02:46:34,0.000,0.0,0.0,0.0
02/03/2023,02:47:34,0.000,0.0,0.0,0.0
02/03/2023,02:48:33,-0.000,0.0,0.0,0.0
02/03/2023,02:49:34,0.000,0.0,0.0,0.0
02/03/2023,02:50:34,0.000,0.0,0.0,0.0
02/03/2023,02:51:34,0.000,0.0,0.0,0.0
02/03/2023,02:52:34,0.000,0.0,0.0,0.0
02/03/2023,02:53:33,0.001,0.0,0.0,0.0
02/03/2023,02:54:34,0.000,0.0,0.0,0.0
02/03/2023,02:55:34,0.000,0.0,0.0,0.0
02/03/2023,02:56:34,0.000,0.0,0.0,0.0
02/03/2023,02:57:34,0.000,0.0,0.0,0.0
02/03/2023,02:58:33,-0.000,0.0,0.0,0.0
02/03/2023,02:59:33,0.000,0.0,0.0,0.0
02/03/2023,03:00:33,-0.000,0.0,0.0,0.0
02/03/2023,03:01:33,-0.000,0.0,0.0,0.0
02/03/2023,03:02:34,0.001,0.0,0.0,0.0
02/03/2023,03:03:33,0.000,0.0,0.0,0.0
02/03/2023,03:04:34,0.000,0.0,0.0,0.0
02/03/2023,03:05:34,0.000,0.0,0.0,0.0
02/03/2023,03:06:34,0.000,0.0,0.0,0.0
02/03/2023,03:07:32,-0.000,0.0,0.0,0.0
02/03/2023,03:08:33,0.000,0.0,0.0,0.0
02/03/2023,03:09:34,0.000,0.0,0.0,0.0
02/03/2023,03:10:34,-0.000,0.0,0.0,0.0
02/03/2023,03:11:34,0.000,0.0,0.0,0.0
02/03/2023,03:12:34,0.001,0.0,0.0,0.0
02/03/2023,03:13:34,-0.000,0.0,0.0,0.0
02/03/2023,03:14:33,0.000,0.0,0.0,0.0
02/03/2023,03:15:34,-0.000,0.0,0.0,0.0
02/03/2023,03:16:34,0.001,0.0,0.0,0.0
02/03/2023,03:17:34,0.000,0.0,0.0,0.0
02/03/2023,03:18:34,0.000,0.0,0.0,0.0
02/03/2023,03:19:34,0.000,0.0,0.0,0.0
02/03/2023,03:20:34,0.001,0.0,0.0,0.0
02/03/2023,03:21:34,0.001,0.0,0.0,0.0
02/03/2023,03:22:34,0.000,0.0,0.0,0.0
02/03/2023,03:23:34,0.000,0.0,0.0,0.0
02/03/2023,03:24:34,0.001,0.0,0.0,0.0
02/03/2023,03:25:33,0.000,0.0,0.0,0.0
02/03/2023,03:26:34,0.000,0.0,0.0,0.0
02/03/2023,03:27:34,0.000,0.0,0.0,0.0
02/03/2023,03:28:34,0.000,0.0,0.0,0.0
02/03/2023,03:29:34,0.001,0.0,0.0,0.0
02/03/2023,03:30:34,-0.000,0.0,0.0,0.0
02/03/2023,03:31:33,0.001,0.0,0.0,0.0
02/03/2023,03:32:35,0.000,0.0,0.0,0.0
02/03/2023,03:33:34,0.001,0.0,0.0,0.0
02/03/2023,03:34:34,0.000,0.0,0.0,0.0
02/03/2023,03:35:34,0.000,0.0,0.0,0.0
02/03/2023,03:36:33,0.000,0.0,0.0,0.0
02/03/2023,03:37:34,0.001,0.0,0.0,0.0
02/03/2023,03:38:34,-0.000,0.0,0.0,0.0
02/03/2023,03:39:34,0.001,0.0,0.0,0.0
02/03/2023,03:40:33,0.001,0.0,0.0,0.0
02/03/2023,03:41:34,0.001,0.0,0.0,0.0
02/03/2023,03:42:33,0.001,0.0,0.0,0.0
02/03/2023,03:43:34,-0.000,0.0,0.0,0.0
02/03/2023,03:44:34,0.001,0.0,0.0,0.0
02/03/2023,03:45:34,0.001,0.0,0.0,0.0
02/03/2023,03:46:34,0.000,0.0,0.0,0.0
02/03/2023,03:47:34,0.001,0.0,0.0,0.0
02/03/2023,03:48:34,0.001,0.0,0.0,0.0
02/03/2023,03:49:34,0.001,0.0,0.0,0.0
02/03/2023,03:50:34,0.001,0.0,0.0,0.0
02/03/2023,03:51:34,-0.000,0.0,0.0,0.0
02/03/2023,03:52:34,0.001,0.0,0.0,0.0
02/03/2023,03:53:34,-0.000,0.0,0.0,0.0
02/03/2023,03:54:34,0.001,0.0,0.0,0.0
02/03/2023,03:55:34,0.001,0.0,0.0,0.0
02/03/2023,03:56:34,0.001,0.0,0.0,0.0
02/03/2023,03:57:34,0.002,0.0,0.0,0.0
02/03/2023,03:58:34,-0.000,0.0,0.0,0.0
02/03/2023,03:59:33,0.001,0.0,0.0,0.0
02/03/2023,04:00:34,0.001,0.0,0.0,0.0
02/03/2023,04:01:34,-0.000,0.0,0.0,0.0
02/03/2023,04:02:34,0.001,0.0,0.0,0.0
02/03/2023,04:03:34,0.001,0.0,0.0,0.0
02/03/2023,04:04:34,0.001,0.0,0.0,0.0
02/03/2023,04:05:34,0.001,0.0,0.0,0.0
02/03/2023,04:06:34,0.000,0.0,0.0,0.0
02/03/2023,04:07:34,-0.000,0.0,0.0,0.0
02/03/2023,04:08:34,0.001,0.0,0.0,0.0
02/03/2023,04:09:33,-0.000,0.0,0.0,0.0
02/03/2023,04:10:34,0.001,0.0,0.0,0.0
02/03/2023,04:11:34,0.000,0.0,0.0,0.0
02/03/2023,04:12:33,0.001,0.0,0.0,0.0
02/03/2023,04:13:34,0.001,0.0,0.0,0.0
02/03/2023,04:14:34,0.000,0.0,0.0,0.0
02/03/2023,04:15:34,0.000,0.0,0.0,0.0
02/03/2023,04:16:34,0.001,0.0,0.0,0.0
02/03/2023,04:17:34,0.001,0.0,0.0,0.0
02/03/2023,04:18:34,0.000,0.0,0.0,0.0
02/03/2023,04:19:34,-0.000,0.0,0.0,0.0
02/03/2023,04:20:34,0.001,0.0,0.0,0.0
02/03/2023,04:21:34,0.001,0.0,0.0,0.0
02/03/2023,04:22:33,0.000,0.0,0.0,0.0
02/03/2023,04:23:34,0.001,0.0,0.0,0.0
02/03/2023,04:24:34,0.000,0.0,0.0,0.0
02/03/2023,04:25:34,-0.000,0.0,0.0,0.0
02/03/2023,04:26:34,0.001,0.0,0.0,0.0
02/03/2023,04:27:34,0.000,0.0,0.0,0.0
02/03/2023,04:28:34,0.001,0.0,0.0,0.0
02/03/2023,04:29:34,0.001,0.0,0.0,0.0
02/03/2023,04:30:34,0.001,0.0,0.0,0.0
02/03/2023,04:31:34,-0.000,0.0,0.0,0.0
02/03/2023,04:32:34,0.000,0.0,0.0,0.0
02/03/2023,04:33:34,0.001,0.0,0.0,0.0
02/03/2023,04:34:34,-0.000,0.0,0.0,0.0
02/03/2023,04:35:33,-0.000,0.0,0.0,0.0
02/03/2023,04:36:34,0.000,0.0,0.0,0.0
02/03/2023,04:37:34,0.000,0.0,0.0,0.0
02/03/2023,04:38:34,-0.000,0.0,0.0,0.0
02/03/2023,04:39:34,0.000,0.0,0.0,0.0
02/03/2023,04:40:34,0.001,0.0,0.0,0.0
02/03/2023,04:41:34,0.000,0.0,0.0,0.0
02/03/2023,04:42:34,0.000,0.0,0.0,0.0
02/03/2023,04:43:34,0.000,0.0,0.0,0.0
02/03/2023,04:44:35,0.000,0.0,0.0,0.0
02/03/2023,04:45:33,0.001,0.0,0.0,0.0
02/03/2023,04:46:34,0.001,0.0,0.0,0.0
02/03/2023,04:47:34,-0.000,0.0,0.0,0.0
02/03/2023,04:48:34,0.001,0.0,0.0,0.0
02/03/2023,04:49:33,0.001,0.0,0.0,0.0
02/03/2023,04:50:34,0.001,0.0,0.0,0.0
02/03/2023,04:51:34,0.002,0.0,0.0,0.0
02/03/2023,04:52:34,-0.000,0.0,0.0,0.0
02/03/2023,04:53:34,0.000,0.0,0.0,0.0
02/03/2023,04:54:34,0.000,0.0,0.0,0.0
02/03/2023,04:55:34,0.000,0.0,0.0,0.0
02/03/2023,04:56:34,0.000,0.0,0.0,0.0
02/03/2023,04:57:34,0.000,0.0,0.0,0.0
02/03/2023,04:58:34,0.000,0.0,0.0,0.0
02/03/2023,04:59:34,0.000,0.0,0.0,0.0
02/03/2023,05:00:34,0.000,0.0,0.0,0.0
02/03/2023,05:01:34,0.002,0.0,0.0,0.0
02/03/2023,05:02:34,0.000,0.0,0.0,0.0
02/03/2023,05:03:34,0.001,0.0,0.0,0.0
02/03/2023,05:04:34,0.001,0.0,0.0,0.0
02/03/2023,05:05:35,0.000,0.0,0.0,0.0
02/03/2023,05:06:34,0.000,0.0,0.0,0.0
02/03/2023,05:07:34,0.000,0.0,0.0,0.0
02/03/2023,05:08:34,0.001,0.0,0.0,0.0
02/03/2023,05:09:34,0.000,0.0,0.0,0.0
02/03/2023,05:10:34,0.001,0.0,0.0,0.0
02/03/2023,05:11:34,-0.000,0.0,0.0,0.0
02/03/2023,05:12:34,-0.000,0.0,0.0,0.0
02/03/2023,05:13:34,0.000,0.0,0.0,0.0
02/03/2023,05:14:34,0.000,0.0,0.0,0.0
02/03/2023,05:15:34,-0.000,0.0,0.0,0.0
02/03/2023,05:16:35,-0.000,0.0,0.0,0.0
02/03/2023,05:17:34,0.000,0.0,0.0,0.0
02/03/2023,05:18:34,-0.000,0.0,0.0,0.0
02/03/2023,05:19:34,0.001,0.0,0.0,0.0
02/03/2023,05:20:34,0.000,0.0,0.0,0.0
02/03/2023,05:21:34,0.000,0.0,0.0,0.0
02/03/2023,05:22:34,0.000,0.0,0.0,0.0
02/03/2023,05:23:34,0.001,0.0,0.0,0.0
02/03/2023,05:24:34,0.000,0.0,0.0,0.0
02/03/2023,05:25:34,0.000,0.0,0.0,0.0
02/03/2023,05:26:34,0.001,0.0,0.0,0.0
02/03/2023,05:27:34,0.000,0.0,0.0,0.0
02/03/2023,05:28:35,0.000,0.0,0.0,0.0
02/03/2023,05:29:35,0.001,0.0,0.0,0.0
02/03/2023,05:30:34,0.000,0.0,0.0,0.0
02/03/2023,05:31:34,0.001,0.0,0.0,0.0
02/03/2023,05:32:34,0.000,0.0,0.0,0.0
02/03/2023,05:33:34,0.001,0.0,0.0,0.0
02/03/2023,05:34:34,-0.000,0.0,0.0,0.0
02/03/2023,05:35:34,0.000,0.0,0.0,0.0
02/03/2023,05:36:34,0.001,0.0,0.0,0.0
02/03/2023,05:37:34,0.000,0.0,0.0,0.0
02/03/2023,05:38:34,0.001,0.0,0.0,0.0
02/03/2023,05:39:34,0.001,0.0,0.0,0.0
02/03/2023,05:40:34,0.000,0.0,0.0,0.0
02/03/2023,05:41:34,0.000,0.0,0.0,0.0
02/03/2023,05:42:34,0.000,0.0,0.0,0.0
02/03/2023,05:43:34,0.001,0.0,0.0,0.0
02/03/2023,05:44:34,0.000,0.0,0.0,0.0
02/03/2023,05:45:34,0.000,0.0,0.0,0.0
02/03/2023,05:46:34,-0.000,0.0,0.0,0.0
02/03/2023,05:47:34,-0.000,0.0,0.0,0.0
02/03/2023,05:48:34,0.000,0.0,0.0,0.0
02/03/2023,05:49:34,0.000,0.0,0.0,0.0
02/03/2023,05:50:34,0.000,0.0,0.0,0.0
02/03/2023,05:51:34,0.000,0.0,0.0,0.0
02/03/2023,05:52:34,0.001,0.0,0.0,0.0
02/03/2023,05:53:34,0.001,0.0,0.0,0.0
02/03/2023,05:54:34,0.000,0.0,0.0,0.0
02/03/2023,05:55:34,0.001,0.0,0.0,0.0
02/03/2023,05:56:34,0.000,0.0,0.0,0.0
02/03/2023,05:57:34,0.000,0.0,0.0,0.0
02/03/2023,05:58:34,0.002,0.0,0.0,0.0
02/03/2023,05:59:34,-0.000,0.0,0.0,0.0
02/03/2023,06:00:34,0.000,0.0,0.0,0.0
02/03/2023,06:01:34,0.000,0.0,0.0,0.0
02/03/2023,06:02:34,0.001,0.0,0.0,0.0
02/03/2023,06:03:34,0.001,0.0,0.0,0.0
02/03/2023,06:04:34,0.001,0.0,0.0,0.0
02/03/2023,06:05:34,0.001,0.0,0.0,0.0
02/03/2023,06:06:34,0.000,0.0,0.0,0.0
02/03/2023,06:07:34,0.000,0.0,0.0,0.0
02/03/2023,06:08:33,0.000,0.0,0.0,0.0
02/03/2023,06:09:34,0.000,0.0,0.0,0.0
02/03/2023,06:10:34,0.000,0.0,0.0,0.0
02/03/2023,06:11:34,0.001,0.0,0.0,0.0
02/03/2023,06:12:34,0.000,0.0,0.0,0.0
02/03/2023,06:13:34,0.000,0.0,0.0,0.0
02/03/2023,06:14:34,0.000,0.0,0.0,0.0
02/03/2023,06:15:35,0.001,0.0,0.0,0.0
02/03/2023,06:16:34,0.000,0.0,0.0,0.0
02/03/2023,06:17:34,0.001,0.0,0.0,0.0
02/03/2023,06:18:34,0.001,0.0,0.0,0.0
02/03/2023,06:19:34,0.000,0.0,0.0,0.0
02/03/2023,06:20:35,0.001,0.0,0.0,0.0
02/03/2023,06:21:34,-0.000,0.0,0.0,0.0
02/03/2023,06:22:34,0.001,0.0,0.0,0.0
02/03/2023,06:23:34,0.002,0.0,0.0,0.0
02/03/2023,06:24:34,0.000,0.0,0.0,0.0
02/03/2023,06:25:34,0.001,0.0,0.0,0.0
02/03/2023,06:26:34,0.001,0.0,0.0,0.0
02/03/2023,06:27:34,0.002,0.0,0.0,0.0
02/03/2023,06:28:34,0.000,0.0,0.0,0.0
02/03/2023,06:29:34,0.001,0.0,0.0,0.0
02/03/2023,06:30:34,0.001,0.0,0.0,0.0
02/03/2023,06:31:34,0.001,0.0,0.0,0.0
02/03/2023,06:32:34,0.002,0.0,0.0,0.0
02/03/2023,06:33:34,-0.000,0.0,0.0,0.0
02/03/2023,06:34:34,0.000,0.0,0.0,0.0
02/03/2023,06:35:34,0.001,0.0,0.0,0.0
02/03/2023,06:36:34,0.001,0.0,0.0,0.0
02/03/2023,06:37:34,0.001,0.0,0.0,0.0
02/03/2023,06:38:35,0.001,0.0,0.0,0.0
02/03/2023,06:39:35,0.001,0.0,0.0,0.0
02/03/2023,06:40:34,0.000,0.0,0.0,0.0
02/03/2023,06:41:34,0.000,0.0,0.0,0.0
02/03/2023,06:42:34,0.001,0.0,0.0,0.0
02/03/2023,06:43:34,0.001,0.0,0.0,0.0
02/03/2023,06:44:34,0.001,0.0,0.0,0.0
02/03/2023,06:45:34,0.001,0.0,0.0,0.0
02/03/2023,06:46:34,0.002,0.0,0.0,0.0
02/03/2023,06:47:34,0.001,0.0,0.0,0.0
02/03/2023,06:48:34,0.002,0.0,0.0,0.0
02/03/2023,06:49:34,0.001,0.0,0.0,0.0
02/03/2023,06:50:34,0.001,0.0,0.0,0.0
02/03/2023,06:51:34,0.001,0.0,0.0,0.0
02/03/2023,06:52:34,0.001,0.0,0.0,0.0
02/03/2023,06:53:34,0.002,0.0,0.0,0.0
02/03/2023,06:54:34,0.003,0.0,0.0,0.0
02/03/2023,06:55:34,0.003,0.0,0.0,0.0
02/03/2023,06:56:34,0.002,0.0,0.0,0.0
02/03/2023,06:57:34,0.002,0.0,0.0,0.0
02/03/2023,06:58:35,0.003,0.0,0.0,0.0
02/03/2023,06:59:34,0.003,0.0,0.0,0.0
02/03/2023,07:00:35,0.003,0.0,0.0,0.0
02/03/2023,07:01:35,0.003,0.0,0.0,0.0
02/03/2023,07:02:34,0.003,0.0,0.0,0.0
02/03/2023,07:03:34,0.003,0.0,0.0,0.0
02/03/2023,07:04:34,0.003,0.0,0.0,0.0
02/03/2023,07:05:35,0.004,0.0,0.0,0.0
02/03/2023,07:06:38,0.004,0.0,0.0,0.0
02/03/2023,07:07:35,0.004,0.0,0.0,0.0
02/03/2023,07:08:34,0.004,0.0,0.0,0.0
02/03/2023,07:09:34,0.004,0.0,0.0,0.0
02/03/2023,07:10:34,0.004,0.0,0.0,0.0
02/03/2023,07:11:34,0.004,0.0,0.0,0.0
02/03/2023,07:12:34,0.005,0.0,0.0,0.0
02/03/2023,07:13:34,0.004,0.0,0.0,0.0
02/03/2023,07:14:34,0.004,0.0,0.0,0.0
02/03/2023,07:15:35,0.004,0.0,0.0,0.0
02/03/2023,07:16:34,0.005,0.0,0.0,0.0
02/03/2023,07:17:34,0.006,0.0,0.0,0.0
02/03/2023,07:18:34,0.007,0.0,0.0,0.0
02/03/2023,07:19:34,0.005,0.0,0.0,0.0
02/03/2023,07:20:34,0.006,0.0,0.0,0.0
02/03/2023,07:21:34,0.007,0.0,0.0,0.0
02/03/2023,07:22:34,0.007,0.0,0.0,0.0
02/03/2023,07:23:34,0.007,0.0,0.0,0.0
02/03/2023,07:24:35,0.006,0.0,0.001,0.001
02/03/2023,07:25:35,0.007,0.0,0.001,0.0
02/03/2023,07:26:34,0.008,0.0,0.001,0.0
02/03/2023,07:27:35,0.008,0.0,0.001,0.0
02/03/2023,07:28:35,0.009,0.0,0.001,0.0
02/03/2023,07:29:35,0.009,0.0,0.001,0.0
02/03/2023,07:30:34,0.009,0.0,0.001,0.0
02/03/2023,07:31:34,0.009,0.0,0.002,0.001
02/03/2023,07:32:34,0.009,0.0,0.002,0.0
02/03/2023,07:33:34,0.010,0.0,0.002,0.0
02/03/2023,07:34:35,0.011,0.0,0.002,0.0
02/03/2023,07:35:34,0.012,0.0,0.002,0.0
02/03/2023,07:36:34,0.012,0.0,0.002,0.0
02/03/2023,07:37:34,0.013,0.0,0.003,0.001
02/03/2023,07:38:35,0.014,0.0,0.003,0.0
02/03/2023,07:39:35,0.016,0.0,0.003,0.0
02/03/2023,07:40:34,0.017,0.0,0.003,0.0
02/03/2023,07:41:34,0.017,0.0,0.004,0.001
02/03/2023,07:42:34,0.018,0.0,0.004,0.0
02/03/2023,07:43:34,0.019,0.0,0.004,0.0
02/03/2023,07:44:34,0.019,0.0,0.005,0.001
02/03/2023,07:45:35,0.020,0.0,0.005,0.0
02/03/2023,07:46:34,0.020,0.0,0.005,0.0
02/03/2023,07:47:34,0.021,0.0,0.006,0.001
02/03/2023,07:48:35,0.021,0.0,0.006,0.0
02/03/2023,07:49:34,0.022,0.0,0.006,0.0
02/03/2023,07:50:34,0.024,0.0,0.007,0.001
02/03/2023,07:51:34,0.025,0.0,0.007,0.0
02/03/2023,07:52:34,0.025,0.0,0.008,0.001
02/03/2023,07:53:35,0.025,0.0,0.008,0.0
02/03/2023,07:54:34,0.026,0.0,0.008,0.0
02/03/2023,07:55:34,0.027,0.0,0.009,0.001
02/03/2023,07:56:35,0.028,0.0,0.009,0.0
02/03/2023,07:57:34,0.029,0.0,0.01,0.001
02/03/2023,07:58:34,0.030,0.0,0.01,0.0
02/03/2023,07:59:34,0.030,0.0,0.011,0.001
02/03/2023,08:00:34,0.031,0.0,0.011,0.0
02/03/2023,08:01:34,0.031,0.0,0.012,0.001
02/03/2023,08:02:35,0.033,0.0,0.012,0.0
02/03/2023,08:03:34,0.034,0.0,0.013,0.001
02/03/2023,08:04:34,0.034,0.0,0.013,0.0
02/03/2023,08:05:34,0.035,0.0,0.014,0.001
02/03/2023,08:06:34,0.036,0.0,0.015,0.001
02/03/2023,08:07:34,0.037,0.0,0.015,0.0
02/03/2023,08:08:35,0.038,0.0,0.016,0.001
02/03/2023,08:09:34,0.039,0.0,0.017,0.001
02/03/2023,08:10:34,0.041,0.0,0.017,0.0
02/03/2023,08:11:34,0.041,0.0,0.018,0.001
02/03/2023,08:12:35,0.042,0.0,0.019,0.001
02/03/2023,08:13:35,0.043,0.0,0.019,0.0
02/03/2023,08:14:34,0.046,0.0,0.02,0.001
02/03/2023,08:15:34,0.046,0.0,0.021,0.001
02/03/2023,08:16:35,0.049,0.0,0.022,0.001
02/03/2023,08:17:34,0.049,0.0,0.022,0.0
02/03/2023,08:18:34,0.051,0.0,0.023,0.001
02/03/2023,08:19:34,0.052,0.0,0.024,0.001
02/03/2023,08:20:34,0.053,0.0,0.025,0.001
02/03/2023,08:21:34,0.053,0.0,0.026,0.001
02/03/2023,08:22:34,0.055,0.0,0.027,0.001
02/03/2023,08:23:34,0.055,0.0,0.028,0.001
02/03/2023,08:24:34,0.057,0.0,0.029,0.001
02/03/2023,08:25:35,0.057,0.0,0.03,0.001
02/03/2023,08:26:35,0.060,0.0,0.031,0.001
02/03/2023,08:27:35,0.063,0.0,0.032,0.001
02/03/2023,08:28:35,0.063,0.0,0.033,0.001
02/03/2023,08:29:35,0.064,0.0,0.034,0.001
02/03/2023,08:30:34,0.065,0.0,0.035,0.001
02/03/2023,08:31:34,0.067,0.0,0.036,0.001
02/03/2023,08:32:35,0.069,0.0,0.037,0.001
02/03/2023,08:33:34,0.071,0.0,0.038,0.001
02/03/2023,08:34:37,0.072,0.0,0.039,0.001
02/03/2023,08:35:35,0.075,0.0,0.041,0.002
02/03/2023,08:36:35,0.078,0.0,0.042,0.001
02/03/2023,08:37:34,0.080,0.0,0.043,0.001
02/03/2023,08:38:34,0.084,0.0,0.045,0.002
02/03/2023,08:39:34,0.086,0.0,0.046,0.001
02/03/2023,08:40:34,0.090,0.0,0.047,0.001
02/03/2023,08:41:34,0.090,0.0,0.049,0.002
02/03/2023,08:42:35,0.093,0.0,0.05,0.001
02/03/2023,08:43:34,0.096,0.0,0.052,0.002
02/03/2023,08:44:34,0.097,0.0,0.054,0.002
02/03/2023,08:45:34,0.099,0.0,0.055,0.001
02/03/2023,08:46:34,0.103,0.0,0.057,0.002
02/03/2023,08:47:34,0.104,0.0,0.059,0.002
02/03/2023,08:48:35,0.107,0.0,0.06,0.001
02/03/2023,08:49:35,0.109,0.0,0.062,0.002
02/03/2023,08:50:35,0.110,0.0,0.064,0.002
02/03/2023,08:51:33,0.112,0.0,0.066,0.002
02/03/2023,08:52:56,0.115,0.0,0.069,0.003
02/03/2023,08:54:35,0.116,0.0,0.072,0.003
02/03/2023,08:55:35,0.118,0.0,0.074,0.002
02/03/2023,08:56:34,0.120,0.0,0.076,0.002
02/03/2023,08:57:35,0.122,0.0,0.078,0.002
02/03/2023,08:58:35,0.126,0.0,0.08,0.002
02/03/2023,08:59:35,0.127,0.0,0.082,0.002
02/03/2023,09:00:34,0.130,0.0,0.084,0.002
02/03/2023,09:01:34,0.130,0.0,0.086,0.002
02/03/2023,09:02:34,0.135,0.0,0.088,0.002
02/03/2023,09:03:35,0.136,0.0,0.091,0.003
02/03/2023,09:04:35,0.137,0.0,0.093,0.002
02/03/2023,09:05:34,0.140,0.0,0.095,0.002
02/03/2023,09:06:35,0.138,0.0,0.097,0.002
02/03/2023,09:07:34,0.143,0.0,0.1,0.003
02/03/2023,09:08:34,0.145,0.0,0.102,0.002
02/03/2023,09:09:35,0.148,0.0,0.105,0.003
02/03/2023,09:10:34,0.149,0.0,0.107,0.002
02/03/2023,09:11:35,0.148,0.0,0.11,0.003
02/03/2023,09:12:34,0.154,0.0,0.112,0.002
02/03/2023,09:13:34,0.153,0.0,0.115,0.003
02/03/2023,09:14:35,0.156,0.0,0.117,0.002
02/03/2023,09:15:34,0.157,0.0,0.12,0.003
02/03/2023,09:16:35,0.156,0.0,0.122,0.002
02/03/2023,09:17:34,0.153,0.0,0.125,0.003
02/03/2023,09:18:35,0.154,0.0,0.128,0.003
02/03/2023,09:19:34,0.153,0.0,0.13,0.002
02/03/2023,09:20:34,0.152,0.0,0.133,0.003
02/03/2023,09:21:34,0.151,0.0,0.135,0.002
02/03/2023,09:22:34,0.151,0.0,0.138,0.003
02/03/2023,09:23:34,0.159,0.0,0.14,0.002
02/03/2023,09:24:34,0.160,0.0,0.143,0.003
02/03/2023,09:25:34,0.160,0.0,0.146,0.003
02/03/2023,09:26:34,0.158,0.0,0.148,0.002
02/03/2023,09:27:34,0.156,0.0,0.151,0.003
02/03/2023,09:28:34,0.155,0.0,0.153,0.002
02/03/2023,09:29:35,0.159,0.0,0.156,0.003
02/03/2023,09:30:34,0.164,0.0,0.159,0.003
02/03/2023,09:31:34,0.161,0.0,0.162,0.003
02/03/2023,09:32:34,0.158,0.0,0.164,0.002
02/03/2023,09:33:34,0.161,0.0,0.167,0.003
02/03/2023,09:34:34,0.168,0.0,0.17,0.003
02/03/2023,09:35:35,0.165,0.0,0.172,0.002
02/03/2023,09:36:34,0.165,0.0,0.175,0.003
02/03/2023,09:37:35,0.160,0.0,0.178,0.003
02/03/2023,09:38:35,0.177,0.0,0.181,0.003
02/03/2023,09:39:34,0.178,0.0,0.183,0.002
02/03/2023,09:40:34,0.176,0.0,0.186,0.003
02/03/2023,09:41:34,0.178,0.0,0.189,0.003
02/03/2023,09:42:34,0.191,0.0,0.192,0.003
02/03/2023,09:43:34,0.175,0.0,0.195,0.003
02/03/2023,09:44:34,0.172,0.0,0.198,0.003
02/03/2023,09:45:35,0.179,0.0,0.201,0.003
02/03/2023,09:46:35,0.178,0.0,0.204,0.003
02/03/2023,09:47:35,0.174,0.0,0.207,0.003
02/03/2023,09:48:34,0.172,0.0,0.21,0.003
02/03/2023,09:49:35,0.176,0.0,0.213,0.003
02/03/2023,09:50:35,0.176,0.0,0.216,0.003
02/03/2023,09:51:35,0.176,0.0,0.219,0.003
02/03/2023,09:52:34,0.182,0.0,0.222,0.003
02/03/2023,09:53:34,0.178,0.0,0.225,0.003
02/03/2023,09:54:35,0.167,0.0,0.228,0.003
02/03/2023,09:55:35,0.156,0.0,0.23,0.002
02/03/2023,09:56:35,0.160,0.0,0.233,0.003
02/03/2023,09:57:34,0.171,0.0,0.236,0.003
02/03/2023,09:58:34,0.184,0.0,0.239,0.003
02/03/2023,09:59:34,0.183,0.0,0.242,0.003
02/03/2023,10:00:35,0.186,0.0,0.245,0.003
02/03/2023,10:01:34,0.196,0.0,0.248,0.003
02/03/2023,10:02:34,0.200,0.0,0.251,0.003
02/03/2023,10:03:35,0.202,0.0,0.255,0.004
02/03/2023,10:04:34,0.200,0.0,0.258,0.003
02/03/2023,10:05:35,0.208,0.0,0.261,0.003
02/03/2023,10:06:34,0.217,0.0,0.265,0.004
02/03/2023,10:07:34,0.223,1.0,0.269,0.004
02/03/2023,10:08:35,0.221,1.0,0.272,0.003
02/03/2023,10:09:35,0.214,0.0,0.276,0.004
02/03/2023,10:10:35,0.212,0.0,0.279,0.003
02/03/2023,10:11:35,0.205,0.0,0.283,0.004
02/03/2023,10:12:34,0.204,0.0,0.286,0.003
02/03/2023,10:13:34,0.204,0.0,0.29,0.004
02/03/2023,10:14:35,0.208,0.0,0.293,0.003
02/03/2023,10:15:35,0.216,0.0,0.297,0.004